カタログに戻る

STARLINK-37238

運用中通信VLEO
NORAD 69247·PAYLOAD·🇺🇸 United States

打ち上げ May 29, 2026 から Cape Canaveral Space Force Station

Loading…

次のパス (今後24時間)

TLE

最新Source: CelesTrak SupGP

元期: Sep 14, 2026, 22:37 UTC

1 69247C 26117K   26257.94284722 -.00038004  00000+0 -11224-2 0  2570
2 69247  53.1571 179.6187 0001225  81.8175 342.1323 15.34422623    12

AllMySatでSTARLINK-37238をリアルタイム追跡

Download on the App Store